sat.trackr.live / text

‹ back to catalog

STARLINK-30453

NORAD 57910 · 2023-146V

PAYLOAD ACTIVE UNKNOWN

§ Identity

Operator
Country
US
Launch date
2023-09-20
Launch site
AFETR
Launch vehicle
Mass (kg)
RCS (m²)

Purposes: comms

External: N2YO · Heavens-Above · Gunter

§ Orbital elements

Epoch: 2026-05-24T16:14:44.365632Z

Period
94.27 min
Inclination
43.0021°
Eccentricity
0.0001804
Mean motion
15.27579783 rev/d
Perigee alt
481.8 km
Apogee alt
484.3 km
Semi-major
6,861.2 km
B*
4.2063e-5
RAAN
241.9941°
Arg perigee
272.2394°
Mean anomaly
87.8251°
Rev number
14,765

§ Raw data

STARLINK-304531 57910U 23146V   26144.67690238  .00000895  00000+0  42063-4 0  99962 57910  43.0021 241.9941 0001804 272.2394  87.8251 15.27579783147654

JSON: /api/v1/satellites/57910 · /tle

For live sub-satellite position, see the globe view (requires WebGL).

§ Visibility from observer

Set your observer location to see the next 7 days of passes ≥ 10°. The values pass through the URL so the page stays shareable.

No JS? Fill the form by hand. The geolocation button needs JavaScript.